{"data":{"norad_id":66437,"intl_designator":"2025-259R","name":"STARLINK-35474","alt_names":[],"object_type":"PAYLOAD","status":"ACTIVE","operator":null,"country":"US","launch_date":"2025-11-11","launch_site_code":"AFETR","launch_vehicle":null,"mission":null,"orbit_class":"UNKNOWN","rcs_meters":null,"size_class":null,"mass_kg":null,"dimensions":null,"purposes":["comms"],"wikipedia_slug":null,"has_3d_model":false,"image_url":null,"decayed_at":null,"tle_current":{"epoch":"2026-05-24T21:23:57.974208Z","epoch_age_seconds":84724,"freshness":"FRESH","line1":"1 66437U 25259R   26144.89164322  .00012255  00000+0  45397-3 0  9996","line2":"2 66437  43.0033 204.1509 0002617 267.8167  92.2384 15.27590774 31149","mean_motion":15.27590774,"eccentricity":0.0002617,"inclination_deg":43.0033,"raan_deg":204.1509,"arg_perigee_deg":267.8167,"mean_anomaly_deg":92.2384,"bstar":0.00045397,"rev_number":3114,"period_min":94.266083856304,"perigee_km":481.22127103872,"apogee_km":484.81239895596,"semimajor_km":6861.1538349973,"source":"CELESTRAK","updated_at":"2026-05-25T13:38:21.210249Z"}}}